Time,TemperatureF,DewpointF,PressureIn,WindDirection,WindDirectionDegrees,WindSpeedMPH,WindSpeedGustMPH,Humidity,HourlyPrecipIn,Conditions,Clouds,dailyrainin,SoftwareType,DateUTC
2013-12-08 00:44:00,30.0,-99.9,30.50,North,10,-999.0,-999.0,-999,0.00,,,-99.99,,2013-12-08 05:44:00,
2013-12-08 00:52:00,30.0,-99.9,30.50,North,356,2.0,5.0,-999,-99.99,,,-99.99,,2013-12-08 05:52:00,
2013-12-08 01:42:00,30.0,-99.9,30.50,North,356,2.0,5.0,-999,-99.99,,,-99.99,,2013-12-08 06:42:00,
2013-12-08 02:52:00,30.0,-99.9,30.54,NE,39,2.0,4.0,-999,0.00,,,-99.99,,2013-12-08 07:52:00,
2013-12-08 03:43:00,30.0,-99.9,30.54,NE,39,2.0,4.0,-999,0.00,,,-99.99,,2013-12-08 08:43:00,
2013-12-08 03:52:00,28.0,-99.9,30.52,ENE,57,5.0,6.0,-999,0.00,,,-99.99,,2013-12-08 08:52:00,
2013-12-08 04:43:00,28.0,-99.9,30.52,ENE,57,5.0,6.0,-999,0.00,,,-99.99,,2013-12-08 09:43:00,
2013-12-08 04:52:00,28.0,-99.9,30.52,NE,44,4.0,7.0,-999,0.00,,,-99.99,,2013-12-08 09:52:00,
2013-12-08 05:43:00,28.0,-99.9,30.52,NE,44,4.0,7.0,-999,0.00,,,-99.99,,2013-12-08 10:43:00,
2013-12-08 05:52:00,28.0,-99.9,30.54,NNE,24,4.0,9.0,-999,0.00,,,-99.99,,2013-12-08 10:52:00,
2013-12-08 06:43:00,28.0,-99.9,30.54,NNE,24,4.0,9.0,-999,0.00,,,-99.99,,2013-12-08 11:43:00,
2013-12-08 06:52:00,29.0,-99.9,30.56,ENE,70,4.0,8.0,-999,0.00,,,-99.99,,2013-12-08 11:52:00,
2013-12-08 07:42:00,29.0,-99.9,30.56,ENE,70,4.0,8.0,-999,0.00,,,-99.99,,2013-12-08 12:42:00,
2013-12-08 07:52:00,28.0,-99.9,30.53,ENE,59,6.0,13.0,-999,0.00,,,-99.99,,2013-12-08 12:52:00,
2013-12-08 08:42:00,28.0,-99.9,30.53,ENE,59,6.0,13.0,-999,0.00,,,-99.99,,2013-12-08 13:42:00,
2013-12-08 08:52:00,29.0,-99.9,30.51,ENE,57,8.0,13.0,-999,0.00,,,-99.99,,2013-12-08 13:52:00,
2013-12-08 09:42:00,29.0,-99.9,30.51,ENE,57,8.0,13.0,-999,0.00,,,-99.99,,2013-12-08 14:42:00,
2013-12-08 09:52:00,29.0,-99.9,30.55,NE,50,5.0,8.0,-999,0.00,,,-99.99,,2013-12-08 14:52:00,
2013-12-08 10:43:00,29.0,-99.9,30.55,NE,50,5.0,8.0,-999,0.00,,,-99.99,,2013-12-08 15:43:00,
2013-12-08 10:52:00,30.0,-99.9,30.55,NE,54,5.0,10.0,-999,0.00,,,-99.99,,2013-12-08 15:52:00,
2013-12-08 11:43:00,30.0,-99.9,30.55,NE,54,5.0,10.0,-999,0.00,,,-99.99,,2013-12-08 16:43:00,
2013-12-08 11:52:00,30.0,-99.9,30.51,ENE,60,8.0,11.0,-999,0.00,,,-99.99,,2013-12-08 16:52:00,
2013-12-08 12:43:00,30.0,-99.9,30.51,ENE,60,8.0,11.0,-999,0.00,,,-99.99,,2013-12-08 17:43:00,
2013-12-08 12:52:00,30.0,-99.9,30.49,NE,39,9.0,11.0,-999,0.00,,,-99.99,,2013-12-08 17:52:00,
2013-12-08 13:42:00,30.0,-99.9,30.49,NE,39,9.0,11.0,-999,0.00,,,-99.99,,2013-12-08 18:42:00,
2013-12-08 13:52:00,30.0,-99.9,30.48,ENE,63,10.0,10.0,-999,0.00,,,-99.99,,2013-12-08 18:52:00,
2013-12-08 14:42:00,30.0,-99.9,30.48,ENE,63,10.0,10.0,-999,0.00,,,-99.99,,2013-12-08 19:42:00,
2013-12-08 14:52:00,29.0,-99.9,30.44,East,89,9.0,10.0,-999,0.00,,,-99.99,,2013-12-08 19:52:00,
2013-12-08 15:42:00,29.0,-99.9,30.44,East,89,9.0,10.0,-999,0.00,,,-99.99,,2013-12-08 20:42:00,
2013-12-08 15:52:00,30.0,-99.9,30.42,East,90,8.0,10.0,-999,0.00,,,-99.99,,2013-12-08 20:52:00,
2013-12-08 16:43:00,30.0,-99.9,30.42,East,90,8.0,10.0,-999,0.00,,,-99.99,,2013-12-08 21:43:00,
2013-12-08 16:52:00,31.0,-99.9,30.45,NE,36,-999.0,-999.0,-999,0.00,,,-99.99,,2013-12-08 21:52:00,
2013-12-08 17:43:00,31.0,-99.9,30.45,NE,36,-999.0,-999.0,-999,0.00,,,-99.99,,2013-12-08 22:43:00,
2013-12-08 17:52:00,31.0,-99.9,30.41,NE,36,-999.0,-999.0,-999,0.04,,,-99.99,,2013-12-08 22:52:00,
2013-12-08 18:42:00,31.0,-99.9,30.41,NE,36,-999.0,-999.0,-999,0.04,,,-99.99,,2013-12-08 23:42:00,
2013-12-08 18:52:00,31.0,-99.9,30.41,NE,36,-999.0,-999.0,-999,0.01,,,-99.99,,2013-12-08 23:52:00,
2013-12-08 19:42:00,31.0,-99.9,30.41,NE,36,-999.0,-999.0,-999,0.01,,,-99.99,,2013-12-09 00:42:00,
2013-12-08 19:52:00,31.0,-99.9,30.37,NE,36,-999.0,-999.0,-999,0.00,,,-99.99,,2013-12-09 00:52:00,
2013-12-08 20:42:00,31.0,-99.9,30.37,NE,36,-999.0,-999.0,-999,0.00,,,-99.99,,2013-12-09 01:42:00,
2013-12-08 20:52:00,32.0,-99.9,30.35,NE,36,-999.0,-999.0,-999,0.00,,,-99.99,,2013-12-09 01:52:00,
2013-12-08 21:42:00,32.0,-99.9,30.35,NE,36,-999.0,-999.0,-999,0.00,,,-99.99,,2013-12-09 02:42:00,
2013-12-08 21:52:00,33.0,-99.9,30.30,NE,36,-999.0,-999.0,-999,0.00,,,-99.99,,2013-12-09 02:52:00,
2013-12-08 22:43:00,33.0,-99.9,30.30,NE,36,-999.0,-999.0,-999,0.00,,,-99.99,,2013-12-09 03:43:00,
2013-12-08 22:52:00,33.0,-99.9,30.28,NE,36,-999.0,-999.0,-999,0.03,,,-99.99,,2013-12-09 03:52:00,
2013-12-08 23:43:00,33.0,-99.9,30.28,NE,36,-999.0,-999.0,-999,0.03,,,-99.99,,2013-12-09 04:43:00,
2013-12-08 23:52:00,33.0,-99.9,30.27,NE,36,-999.0,-999.0,-999,0.08,,,-99.99,,2013-12-09 04:52:00,